Epoch 2010 Feb. 13.0 TT = JDT 2455240.5 T 2010 Jan. 31.83632 TT MPC q 1.9895932 (2000.0) P Q n 0.15658724 Peri. 16.09381 +0.55508591 -0.81797336 a 3.4090377 Node 40.52851 +0.73524152 +0.39761330 e 0.4163769 Incl. 13.43610 +0.38897241 +0.41572016 P 6.29
m1 = 15.7 + 5 logΔ + 10.0 log r